Zurück zum Katalog

KINEIS-2E

AktivKommunikationSSO
NORAD 62931·PAYLOAD·🇫🇷 France

Gestartet Feb 8, 2025 von Rocket Lab Launch Complex 1

Loading…

Nächste Überflüge (nächste 24 Stunden)

TLE

AktuellSource: Space-Track

Epoche: Sep 14, 2026, 13:47 UTC

1 62931U 25028D   26257.57462059  .00000880  00000-0  13140-3 0  9996
2 62931  97.8872 307.2783 0001037 112.2383 247.8938 14.77209910 85975

Verfolge KINEIS-2E in Echtzeit mit AllMySat

Download on the App Store